User: anonymous   Login
Location: Stigler
(35.2540°N, 95.1230°W)
Time: 02:58:41
(UTC-06:00)
Language:

Cosmos 1805 - Orbit

View from above orbital plane
View from above orbital plane
View from above satellite
View from above satellite

Ground track
Ground track

The orbit data is extracted from the following two-line orbital elements,

1 17191U 86097A   17055.70834533  .00001657  00000-0  95790-4 0  9993
2 17191  82.4761 140.2471 0006711 101.0922 259.1063 15.11615232646658
Epoch (UTC): 24 February 2017 17:00:01
Eccentricity: 0.0006711
inclination: 82.4761°
perigee height: 526 km
apogee height: 536 km
right ascension of ascending node: 140.2471°
argument of perigee: 101.0922°
revolutions per day: 15.11615232
mean anomaly at epoch: 259.1063°
orbit number at epoch: 64665

The dashed part of the orbit path shows where the satellite is in the earth's shadow,  

DLR